Home > Weather > Soltau > Past weeks

Flag for Germany Weather for the Past 2 Weeks in Soltau, Lower Saxony, Germany

Now
50 °F

Broken clouds.


Feels Like: 45 °F
Forecast: 42 / 50 °F
Wind: 13 mph from Southwest

Location: Fassberg

Current Time: Feb 6, 2016 at 1:11:51 PM

Latest Report: Feb 6, 2016 at 12:20 PM


Visibility: N/A

Pressure: 29.86 "Hg

Humidity: 71%

Dew point: 41 °F

Location of SoltauLocation

Historic Weather in Soltau — Graph

°F

Soltau Temperature Yesterday

Maximum temperature yesterday: 46 °F (at 9:20 PM)
Minimum temperature yesterday: 34 °F (at 2:20 AM)
Average temperature yesterday: 39 °F

High & Low Weather Summary for the Past Weeks

 TemperatureHumidityPressure
High54 °F (Jan 27, 7:20 PM)100% (Jan 23, 7:20 AM)30.48 "Hg (Jan 23, 7:20 AM)
Low21 °F (Jan 22, 8:20 PM)57% (Jan 28, 2:20 PM)29.53 "Hg (Jan 30, 4:20 PM)
Average43 °F86%30.01 "Hg
* Reported Jan 22 11:20 AM — Feb 6 11:20 AM, Soltau, Weather by CustomWeather, © 2016

Note: Actual official high and low records may vary slightly from our data, if they occured in-between our weather recording intervals... More about our weather records

Advertising

Soltau Weather History for the Previous 24 Hours

 ConditionsComfort  
Time TempWeatherWind HumidityBarometerVisibility
11:20 AM
Sat, Feb 6
48 °FScattered clouds.12 mph82%29.86 "HgN/A
10:20 AM46 °FPartly sunny.10 mph82%29.89 "HgN/A
9:20 AM45 °FScattered clouds.10 mph87%29.92 "HgN/A
8:20 AM46 °FPartly sunny.9 mph87%29.92 "HgN/A
7:20 AM46 °FPassing clouds.10 mph87%29.95 "HgN/A
6:20 AM46 °FPassing clouds.9 mph87%29.95 "HgN/A
5:20 AM46 °FPassing clouds.10 mph87%29.95 "HgN/A
4:20 AM46 °FPassing clouds.10 mph87%29.98 "HgN/A
3:20 AM46 °FPassing clouds.9 mph93%30.01 "Hg4 mi
2:20 AM46 °FFog.9 mph93%30.01 "Hg3 mi
1:20 AM46 °FDrizzle. Fog.9 mph93%30.04 "Hg1 mi
12:20 AM46 °FDrizzle. Fog.9 mph93%30.04 "Hg1 mi
11:20 PM
Fri, Feb 5
46 °FFog.8 mph93%30.07 "Hg2 mi
10:20 PM46 °FDrizzle. Fog.9 mph93%30.07 "Hg2 mi
9:20 PM46 °FDrizzle. Fog.9 mph93%30.07 "Hg2 mi
8:20 PM45 °FFog.9 mph100%30.07 "Hg2 mi
7:20 PM45 °FDrizzle. Fog.10 mph93%30.09 "Hg1 mi
6:20 PM45 °FFog.9 mph93%30.09 "Hg2 mi
5:20 PM45 °FFog.13 mph93%30.07 "Hg2 mi
4:20 PM43 °FFog.10 mph93%30.07 "Hg1 mi
3:20 PM41 °FDrizzle. Fog.10 mph93%30.09 "Hg2 mi
2:20 PM39 °FDrizzle. Fog.10 mph100%30.09 "Hg2 mi
1:20 PM39 °FDrizzle. Fog.14 mph93%30.12 "Hg3 mi
Weather by CustomWeather, © 2016

See weather overviewHow to use our weather pages